Regional Weather Roundup
Issued by NWS Mobile, AL

Home | Current Version | Previous Version | Text Only | Print | Product List | Glossary On
Versions: 1 2 3 4 5 6 7 8 9 10 11 12 13 14 15 16 17 18 19 20 21 22 23 24 25 26 27 28 29 30 31 32 33 34 35 36 37 38 39 40 41 42 43 44 45 46 47 48 49 50
000
ASUS44 KMOB 241612
RWRMOB
REGIONAL WEATHER ROUNDUP
NATIONAL WEATHER SERVICE MOBILE AL
1100 AM CDT SUN MAY 24 2015

NOTE: "FAIR" INDICATES FEW OR NO CLOUDS BELOW 12,000 FEET WITH NO
      SIGNIFICANT WEATHER AND/OR OBSTRUCTIONS TO VISIBILITY.

  * THESE STATIONS ARE PART OF THE UNIVERSITY OF SOUTH ALABAMA
    MESONET AND ARE NOT UNDER NWS OR FAA QUALITY CONTROL.

ALZ061>064-241700-
COASTAL ALABAMA

CITY           SKY/WX    TMP DP  RH WIND       PRES   REMARKS
MOBILE REG APT PTSUNNY   83  73  72 SE14      30.17S
BROOKLEY FIELD MOSUNNY   83  75  77 SE17G25   30.17S
USA CAMPUS*      N/A     86  77  74 SE7       30.17S HX  97
DOG RIVER*     NOT AVBL


CITY           SKY/WX    TMP DP  RH WIND       PRES   REMARKS
MOUNT VERNON*    N/A     81  70  69 SE6       30.16F
SARALAND*      NOT AVBL
BAY MINETTE*   NOT AVBL
LOXLEY*          N/A     81  73  78 SE17      30.17S
ROBERTSDALE*     N/A     82  75  78 SE15      30.16S
FAIRHOPE*        N/A     84  73  70 S10       30.15S
ELBERTA*         N/A     81  75  83 E13       30.16S
FOLEY*         NOT AVBL
GRAND BAY*     NOT AVBL
DAUPHIN ISLND* NOT AVBL
BON SCOUR NWR* NOT AVBL
GULF SHORES    CLOUDY    83  76  79 SE17G24   30.17S

$$

ALZ051>060-241700-
INTERIOR SOUTHWEST AND SOUTH CENTRAL ALABAMA

CITY           SKY/WX    TMP DP  RH WIND       PRES   REMARKS
GREENVILLE     CLOUDY    80  69  69 SE10G18   30.22S
EVERGREEN      PTSUNNY   83  71  67 SE14      30.21S
CASTLEBERRY*   NOT AVBL
ATMORE*          N/A     81  73  78 SE16      30.19S
DIXIE*         NOT AVBL
ANDALUSIA/OPP  CLOUDY    84  70  62 VRB6G16   30.22
ANDALUSIA*       N/A     81  72  74 SE10      30.22S
FLORALA APT    CLOUDY    82  71  69 SE9G16    30.23S
FLORALA*         N/A     82  72  69 E8        30.18F

$$

FLZ001>006-241700-
WESTERN FLORIDA PANHANDLE

CITY           SKY/WX    TMP DP  RH WIND       PRES   REMARKS
PENSACOLA      CLOUDY    81  74  79 SE21G26   30.18R
NAS PENSACOLA  CLOUDY    85  75  72 SE24G31   30.17R
MILTON         NOT AVBL
WHTNG S FIELD    N/A    N/A N/A N/A MISG      30.19S


CITY           SKY/WX    TMP DP  RH WIND       PRES   REMARKS
WALNUT HILL*   NOT AVBL
JAY*             N/A     84  70  61 E14       30.18S
DUKE FIELD     MOSUNNY   84  70  63 S17       30.19S
CRESTVIEW      PTSUNNY   85  71  63 SE9G20    30.21F
VALPARAISO     PTSUNNY   85  73  66 SE18G24   30.20S
DESTIN         MOSUNNY   85  74  69 SE17G24   30.20R

$$

MSZ076-079-241700-
INTERIOR SOUTHEAST MISSISSIPPI

CITY           SKY/WX    TMP DP  RH WIND       PRES   REMARKS
LEAKESVILLE*     N/A     82  73  74 E5        30.15F
AGRICOLA*      NOT AVBL

$$

MARINE OBSERVATIONS

STATION/POSITION TIME  TEMP    WIND        PRES    WAVE
                       AIR SEA DIR/SP/G            HT/PER
                 (UTC) (F)     (DEG/KT/KT) (MB)    (FT/S)
PASCAGOULA       1500   81     130/ 14/ 19 1020.7R
PETIT BOIS ISLND 1500   83     120/ 14/ 19 1021.2R
GRAND BAY        1400   80     130/ 15     1021.0S
CEDAR POINT      1500   81     140/ 15     1021.3R
E DAUPHIN ISLAND 1600   81     140/ 16/ 18 1020.9R
MIDDLE BAY LIGHT 1500   80     140/ 20     1020.3R
USCG MOBILE BAY  1500   81 80  170/ 11/ 15 1020.3R
STATE DOCKS      1500   82 80              1021.2R
MEAHER PARK      1500   83     150/ 12     1020.3R
WEEKS BAY        1445   84                   N/A
FORT MORGAN      1500   81     150/ 20/ 23 1020.8R
12 S ORANGE BCH  1550   81 80  130/ 17/ 21 1020.6R   4/ 5
PENSACOLA BAY    1500   84 82  120/  4/ 10 1021.9R
64 S DAUPHIN ISL 1550   81 80  130/ 16/ 19 1020.7R   4/ 6
67 S FORT MORGAN 1530   80     140/ 19     1020.7R

$$

SELECTED LOCATIONS ACROSS THE REGION

CITY           SKY/WX    TMP DP  RH WIND       PRES   REMARKS
NEW ORLEANS    PTSUNNY   85  71  63 S18       30.09F
GULFPORT       MOSUNNY   85  75  72 SE22      30.13S
PASCAGOULA AP  MOSUNNY   84  74  71 SE18G25   30.15S
PASCAGOULA*    NOT AVBL
HATTIESBURG    MOSUNNY   86  71  60 SE18      30.13F
LAUREL         PTSUNNY   82  70  65 S16       30.14F
MERIDIAN       PTSUNNY   83  70  64 S17G24    30.16S
JACKSON        PTSUNNY   81  71  71 SE17      30.11F
MONTGOMERY     CLOUDY    80  68  66 SE13G20   30.23F
TROY           CLOUDY    81  69  67 SE14      30.25F
KINSTON*         N/A     82  70  65 S3          N/A
GENEVA*          N/A     82  70  65 SE8       30.24S
ASHFORD*         N/A     81  72  74 SE10      30.22S
DOTHAN         PTSUNNY   82  68  62 SE14      30.27F
PANAMA CITY    PTSUNNY   85  71  63 E10G18    30.20F

$$




USA.gov is the U.S. government's official web portal to all federal, state and local government web resources and services.